SCP
-0 -0 0 -0 -0 -0 -0 -0 -1 -1 -1 -0 -0 -0 -0 -0 0 0 0 0 0 0 0 -0 -0 -0 -0 -0 -0 -0 0 0 0
-0 -0 -0 -0 -0 -0 -0 -0 -1 -2 -1 -1 -1 -0 -0 -0 0 0 0 0 0 0 0 -0 -0 -0 -0 -0 -0 -0 0 0 0
-0 -0 -0 -0 -0 -0 -0 -1 -1 -2 -1 -2 -2 -2 -1 -0 0 0 0 0 0 0 0 -0 -0 -0 -0 -0 -0 -0 0 0 0
-0 -0 -0 -0 -0 -0 -0 -0 -1 -2 -1 -1 -1 -1 -1 -1 -0 0 0 0 0 0 -0 -0 -0 -0 -0 -0 0 0 0 0 0
-0 -0 0 0 -0 -0 0 -1 -1 -2 -1 -1 -1 -1 -1 -1 -0 0 0 0 0 0 -0 -0 -0 -0 -0 -0 -0 0 0 0 0
0 0 0 0 0 0 0 -0 -1 -1 -1 -2 -1 -0 -1 -1 -0 -0 0 0 0 0 -0 -0 -0 -0 -0 -0 0 0 0 0 0
0 0 0 0 0 0 0 0 0 -0 -0 -1 -1 -0 -1 -1 -1 -0 0 0 0 0 -0 -0 -0 -0 0 0 0 0 0 0 0
0 0 0 0 0 0 1 1 0 -0 0 0 -0 -0 -1 -1 -0 0 1 0 0 0 0 0 0 0 0 0 0 0 0 0 0
0 0 0 0 0 0 0 0 0 -0 -0 -1 -0 0 -0 -0 0 1 0 1 1 0 1 1 0 0 0 0 1 0 0 0 0
0 0 0 0 0 0 0 1 1 1 1 1 2 1 1 0 1 1 1 1 1 1 1 2 1 1 0 0 0 0 0 0 0
0 0 0 0 0 0 1 1 1 1 2 3 3 2 1 1 0 1 1 2 2 2 2 2 2 2 1 1 1 0 0 0 0
0 0 0 0 1 1 1 1 1 3 3 3 3 3 3 1 1 2 2 2 3 4 4 3 3 2 2 1 0 0 0 0 0
0 0 0 0 0 1 1 1 1 2 2 2 3 2 3 3 3 3 3 3 3 5 5 4 4 2 1 1 0 0 0 0 0
1 1 0 0 0 0 1 2 1 1 2 2 3 2 2 4 5 5 4 6 5 6 6 5 3 2 1 0 0 0 0 0 0
1 1 1 3 0 0 0 1 4 2 2 1 3 4 4 5 7 9 10 7 7 5 4 3 3 2 0 0 0 0 0 0 0
4 4 4 5 4 2 5 2 4 4 2 3 3 4 4 7 9 11 11 10 6 5 4 3 3 1 0 0 0 0 0 0 0
0 0 0 0 2 5 5 7 8 5 6 6 7 10 12 13 10 10 8 7 6 4 3 2 1 1 1 0 0 0 0 0 0
0 0 0 0 0 0 0 4 19 19 19 22 21 19 11 10 8 8 2 0 2 2 1 1 0 0 0 0 0 0 0 0 0
0 0 0 0 0 0 0 0 1 17 14 14 14 12 10 8 1 0 0 0 0 0 0 0 0 0 0 0 0 0 0 0 0
0 0 0 0 0 -0 -0 0 0 2 10 8 7 9 6 3 0 0 0 0 0 0 0 0 0 0 0 0 0 0 0 0 0
Wind_Speed_500mb
76 87 100 107 117 123 126 123 123 120 114 105 99 91 82 71 68 70 67 58 63 59 56 54 50 49 40 35 35 32 29 27 25
71 90 103 110 121 125 126 123 125 123 116 108 100 92 82 77 69 70 74 60 59 64 62 58 57 51 41 37 36 34 31 31 28
85 93 103 106 114 127 124 127 126 121 116 110 101 95 86 79 72 70 75 69 69 67 58 57 58 53 42 43 42 39 33 33 32
95 99 103 112 103 110 124 119 120 121 117 111 105 98 90 81 73 74 73 76 76 76 65 61 63 58 52 50 50 48 41 39 38
97 101 96 115 109 104 103 114 115 120 118 114 110 95 92 85 73 74 77 76 80 83 81 71 71 66 61 58 56 53 48 45 46
43 64 59 57 89 100 111 113 116 117 118 116 110 101 94 86 82 79 77 78 78 84 87 88 77 72 72 68 63 59 56 51 49
70 53 52 69 81 102 106 111 114 117 117 118 111 103 99 91 85 85 80 77 80 83 89 92 93 88 82 77 71 67 64 61 53
53 70 69 66 93 105 107 109 112 112 116 119 117 109 103 98 87 86 84 80 80 84 86 92 91 89 85 80 76 76 74 70 63
53 64 77 65 92 113 111 116 116 114 116 118 117 115 109 97 90 91 91 87 84 83 86 86 89 88 85 86 81 80 81 76 72
45 54 60 71 93 101 113 121 117 113 113 114 116 116 111 104 94 93 94 92 87 83 84 81 79 83 84 78 80 79 77 74 69
27 49 43 63 91 97 120 121 109 110 112 113 116 114 112 108 100 96 97 95 90 86 80 77 68 66 64 64 70 65 55 58 57
47 38 28 38 64 95 100 105 107 108 108 111 113 114 113 110 104 98 98 97 90 83 75 72 64 57 55 56 75 70 63 54 47
51 52 52 52 49 39 43 93 96 98 108 109 113 117 114 110 111 102 96 93 89 80 71 63 56 53 58 58 47 57 50 35 37
16 33 53 57 65 65 61 58 91 96 107 115 109 104 112 117 115 109 97 91 90 79 68 56 52 56 62 50 43 45 28 28 32
11 15 21 37 54 70 77 82 81 94 107 103 100 115 111 107 114 111 102 97 92 70 61 54 62 65 50 44 37 30 32 32 30
15 13 27 35 43 53 71 77 85 91 89 96 106 104 98 98 98 102 103 100 80 70 71 69 66 57 51 41 35 36 30 30 28
9 6 2 9 21 35 57 65 91 98 103 101 106 97 94 97 95 96 94 83 75 77 78 68 61 49 42 37 38 35 32 31 32
21 17 15 16 22 16 22 38 76 91 86 95 99 96 91 87 84 82 83 84 74 68 63 58 55 44 41 44 45 38 25 22 22
35 25 25 26 43 50 61 39 39 72 74 84 90 87 86 81 77 76 74 57 44 43 42 39 38 39 35 37 27 30 29 29 28
42 26 27 39 56 73 98 112 110 38 83 79 71 70 76 73 61 47 47 42 40 56 57 52 47 47 43 32 34 35 30 32 30
Wind_Direction_500mb
208 201 204 205 213 215 214 214 216 217 218 218 218 220 224 228 232 230 224 221 215 222 225 230 236 232 237 234 231 232 236 229 224
203 202 204 207 213 217 213 212 218 218 218 219 221 221 223 226 228 227 221 217 215 219 223 230 232 230 237 228 225 229 234 229 227
207 205 203 207 213 213 213 215 219 220 221 220 221 222 222 225 227 227 221 217 215 219 225 225 225 228 230 227 231 231 235 236 228
204 201 201 207 209 211 215 213 214 219 220 220 220 224 221 222 224 225 223 219 218 222 227 224 226 232 232 233 234 237 242 240 234
203 199 195 206 214 211 206 211 212 218 219 220 222 222 223 222 223 224 224 223 220 221 226 228 227 232 236 239 241 243 247 246 240
201 205 213 215 208 207 210 212 212 217 220 221 223 220 222 221 223 224 224 227 224 223 224 228 230 233 237 239 242 245 248 250 247
203 198 220 242 215 210 211 215 211 218 220 222 221 222 221 222 223 226 226 226 226 226 226 228 230 233 238 242 245 249 251 253 250
199 206 213 220 202 204 210 213 212 219 223 221 222 221 222 223 224 227 229 228 228 229 230 231 232 234 238 242 244 250 253 258 252
253 222 203 211 205 205 208 215 217 219 219 220 221 222 225 224 224 227 229 230 229 229 233 233 234 236 239 243 247 253 256 256 255
241 220 206 208 207 211 212 214 218 216 220 221 221 223 225 226 224 227 230 231 232 234 232 234 236 238 240 245 252 255 256 254 253
260 228 234 195 206 204 211 215 219 223 221 220 222 223 223 227 226 226 228 230 231 234 235 237 236 239 244 251 264 261 259 257 253
217 210 210 209 212 210 210 214 218 220 217 219 220 224 224 226 227 226 227 228 229 231 233 234 236 239 236 225 258 258 258 246 240
223 226 223 223 219 210 216 224 217 219 219 221 223 226 229 229 227 227 227 228 227 226 229 233 234 237 233 253 243 247 246 247 239
195 225 233 225 228 221 224 226 220 217 221 222 227 230 230 225 225 226 227 228 226 222 226 226 228 234 233 243 238 235 236 226 224
201 238 241 241 240 240 236 225 223 226 224 227 229 227 221 221 223 223 223 224 222 220 220 217 224 223 230 221 228 214 209 213 210
121 206 235 240 257 254 247 247 236 225 223 224 223 219 215 217 217 220 220 219 214 212 211 215 215 211 210 201 199 207 208 205 211
107 63 53 303 260 256 260 258 243 230 224 219 214 212 213 211 211 210 213 209 208 210 206 211 213 201 185 193 200 197 200 201 212
62 53 32 13 355 334 306 296 241 224 214 209 202 200 200 197 198 202 194 193 202 211 220 213 196 189 184 186 191 189 188 196 202
42 20 340 308 311 307 311 297 310 210 207 201 195 182 182 187 194 193 187 182 177 166 181 170 165 160 162 169 164 177 178 178 177
58 38 360 338 325 323 305 275 258 224 184 183 185 186 189 193 205 184 194 155 160 182 167 169 160 159 151 176 171 167 169 175 184
Wind_Speed_850mb
76 87 100 107 117 123 126 123 123 120 114 105 99 91 82 71 68 70 67 58 63 59 56 54 50 49 40 35 35 32 29 27 25
71 90 103 110 121 125 126 123 125 123 116 108 100 92 82 77 69 70 74 60 59 64 62 58 57 51 41 37 36 34 31 31 28
85 93 103 106 114 127 124 127 126 121 116 110 101 95 86 79 72 70 75 69 69 67 58 57 58 53 42 43 42 39 33 33 32
95 99 103 112 103 110 124 119 120 121 117 111 105 98 90 81 73 74 73 76 76 76 65 61 63 58 52 50 50 48 41 39 38
97 101 96 115 109 104 103 114 115 120 118 114 110 95 92 85 73 74 77 76 80 83 81 71 71 66 61 58 56 53 48 45 46
43 64 59 57 89 100 111 113 116 117 118 116 110 101 94 86 82 79 77 78 78 84 87 88 77 72 72 68 63 59 56 51 49
70 53 52 69 81 102 106 111 114 117 117 118 111 103 99 91 85 85 80 77 80 83 89 92 93 88 82 77 71 67 64 61 53
53 70 69 66 93 105 107 109 112 112 116 119 117 109 103 98 87 86 84 80 80 84 86 92 91 89 85 80 76 76 74 70 63
53 64 77 65 92 113 111 116 116 114 116 118 117 115 109 97 90 91 91 87 84 83 86 86 89 88 85 86 81 80 81 76 72
45 54 60 71 93 101 113 121 117 113 113 114 116 116 111 104 94 93 94 92 87 83 84 81 79 83 84 78 80 79 77 74 69
27 49 43 63 91 97 120 121 109 110 112 113 116 114 112 108 100 96 97 95 90 86 80 77 68 66 64 64 70 65 55 58 57
47 38 28 38 64 95 100 105 107 108 108 111 113 114 113 110 104 98 98 97 90 83 75 72 64 57 55 56 75 70 63 54 47
51 52 52 52 49 39 43 93 96 98 108 109 113 117 114 110 111 102 96 93 89 80 71 63 56 53 58 58 47 57 50 35 37
16 33 53 57 65 65 61 58 91 96 107 115 109 104 112 117 115 109 97 91 90 79 68 56 52 56 62 50 43 45 28 28 32
11 15 21 37 54 70 77 82 81 94 107 103 100 115 111 107 114 111 102 97 92 70 61 54 62 65 50 44 37 30 32 32 30
15 13 27 35 43 53 71 77 85 91 89 96 106 104 98 98 98 102 103 100 80 70 71 69 66 57 51 41 35 36 30 30 28
9 6 2 9 21 35 57 65 91 98 103 101 106 97 94 97 95 96 94 83 75 77 78 68 61 49 42 37 38 35 32 31 32
21 17 15 16 22 16 22 38 76 91 86 95 99 96 91 87 84 82 83 84 74 68 63 58 55 44 41 44 45 38 25 22 22
35 25 25 26 43 50 61 39 39 72 74 84 90 87 86 81 77 76 74 57 44 43 42 39 38 39 35 37 27 30 29 29 28
42 26 27 39 56 73 98 112 110 38 83 79 71 70 76 73 61 47 47 42 40 56 57 52 47 47 43 32 34 35 30 32 30
Wind_Direction_850mb
208 201 204 205 213 215 214 214 216 217 218 218 218 220 224 228 232 230 224 221 215 222 225 230 236 232 237 234 231 232 236 229 224
203 202 204 207 213 217 213 212 218 218 218 219 221 221 223 226 228 227 221 217 215 219 223 230 232 230 237 228 225 229 234 229 227
207 205 203 207 213 213 213 215 219 220 221 220 221 222 222 225 227 227 221 217 215 219 225 225 225 228 230 227 231 231 235 236 228
204 201 201 207 209 211 215 213 214 219 220 220 220 224 221 222 224 225 223 219 218 222 227 224 226 232 232 233 234 237 242 240 234
203 199 195 206 214 211 206 211 212 218 219 220 222 222 223 222 223 224 224 223 220 221 226 228 227 232 236 239 241 243 247 246 240
201 205 213 215 208 207 210 212 212 217 220 221 223 220 222 221 223 224 224 227 224 223 224 228 230 233 237 239 242 245 248 250 247
203 198 220 242 215 210 211 215 211 218 220 222 221 222 221 222 223 226 226 226 226 226 226 228 230 233 238 242 245 249 251 253 250
199 206 213 220 202 204 210 213 212 219 223 221 222 221 222 223 224 227 229 228 228 229 230 231 232 234 238 242 244 250 253 258 252
253 222 203 211 205 205 208 215 217 219 219 220 221 222 225 224 224 227 229 230 229 229 233 233 234 236 239 243 247 253 256 256 255
241 220 206 208 207 211 212 214 218 216 220 221 221 223 225 226 224 227 230 231 232 234 232 234 236 238 240 245 252 255 256 254 253
260 228 234 195 206 204 211 215 219 223 221 220 222 223 223 227 226 226 228 230 231 234 235 237 236 239 244 251 264 261 259 257 253
217 210 210 209 212 210 210 214 218 220 217 219 220 224 224 226 227 226 227 228 229 231 233 234 236 239 236 225 258 258 258 246 240
223 226 223 223 219 210 216 224 217 219 219 221 223 226 229 229 227 227 227 228 227 226 229 233 234 237 233 253 243 247 246 247 239
195 225 233 225 228 221 224 226 220 217 221 222 227 230 230 225 225 226 227 228 226 222 226 226 228 234 233 243 238 235 236 226 224
201 238 241 241 240 240 236 225 223 226 224 227 229 227 221 221 223 223 223 224 222 220 220 217 224 223 230 221 228 214 209 213 210
121 206 235 240 257 254 247 247 236 225 223 224 223 219 215 217 217 220 220 219 214 212 211 215 215 211 210 201 199 207 208 205 211
107 63 53 303 260 256 260 258 243 230 224 219 214 212 213 211 211 210 213 209 208 210 206 211 213 201 185 193 200 197 200 201 212
62 53 32 13 355 334 306 296 241 224 214 209 202 200 200 197 198 202 194 193 202 211 220 213 196 189 184 186 191 189 188 196 202
42 20 340 308 311 307 311 297 310 210 207 201 195 182 182 187 194 193 187 182 177 166 181 170 165 160 162 169 164 177 178 178 177
58 38 360 338 325 323 305 275 258 224 184 183 185 186 189 193 205 184 194 155 160 182 167 169 160 159 151 176 171 167 169 175 184